Flag for Monaco Weather past 2 weeks in Monaco, Monaco

63 °F

Passing clouds.

Feels Like: 63 °F
Forecast: 54 / 70 °F
Wind: 3 mph from North

Location: Nice Airport

Current Time: Oct 9, 2015 at 2:28:34 AM

Latest Report: Oct 9, 2015 at 2:00 AM

Visibility: N/A

Pressure: 30.01 "Hg

Humidity: 73%

Dew point: 54 °F

Location of MonacoLocation

Historic Weather in Monaco — Graph


Monaco temperature yesterday

Maximum temperature yesterday: 72 °F (at 11:30 AM)
Minimum temperature yesterday: 59 °F (at 6:00 AM)
Average temperature yesterday: 66 °F

Past Weeks' High & Low Weather Summary

High75 °F (Sep 25, 12:00 PM)94% (Oct 3, 10:08 PM)30.21 "Hg (Oct 3, 10:08 PM)
Low55 °F (Sep 30, 5:30 AM)29% (Sep 24, 11:30 AM)29.74 "Hg (Oct 7, 5:30 AM)
Average66 °F63%30.02 "Hg
* Reported Sep 24 1:00 AM — Oct 9 1:00 AM, Monaco, Weather by CustomWeather, © 2015

Note: Actual official high and low records may vary slightly from our data, if they occured in-between our weather recording intervals... More about our weather records


Monaco weather history for previous 24 hours

Time TempWeatherWind HumidityBarometerVisibility
1:00 AM
Fri, Oct 9
63 °FClear.7 mph73%29.98 "Hg10 mi
12:30 AM63 °FClear.8 mph77%29.98 "Hg10 mi
12:00 AM63 °FClear.7 mph77%30.01 "Hg10 mi
11:30 PM
Thu, Oct 8
63 °FClear.8 mph77%30.01 "Hg10 mi
11:00 PM64 °FClear.6 mph78%30.01 "Hg10 mi
10:30 PM64 °FClear.7 mph83%30.01 "Hg10 mi
10:00 PM64 °FPassing clouds.6 mph83%29.98 "HgN/A
9:30 PM66 °FClear.6 mph78%29.98 "Hg10 mi
8:30 PM68 °FClear.1 mph73%29.98 "Hg10 mi
8:00 PM66 °FPassing clouds.2 mph78%29.98 "HgN/A
7:30 PM68 °FScattered clouds.2 mph73%29.98 "HgN/A
7:00 PM68 °FScattered clouds.No wind73%29.95 "HgN/A
6:30 PM70 °FScattered clouds.No wind69%29.95 "HgN/A
6:00 PM70 °FScattered clouds.1 mph69%29.95 "HgN/A
5:30 PM70 °FScattered clouds.2 mph69%29.95 "HgN/A
5:00 PM72 °FScattered clouds.2 mph65%29.95 "HgN/A
4:30 PM70 °FScattered clouds.2 mph69%29.95 "HgN/A
4:00 PM72 °FScattered clouds.2 mph65%29.95 "HgN/A
3:30 PM72 °FScattered clouds.3 mph65%29.95 "HgN/A
3:00 PM72 °FScattered clouds.2 mph65%29.95 "HgN/A
2:30 PM72 °FScattered clouds.3 mph65%29.95 "HgN/A
2:00 PM72 °FScattered clouds.3 mph69%29.98 "HgN/A
1:30 PM72 °FScattered clouds.2 mph69%29.98 "HgN/A
1:00 PM72 °FScattered clouds.3 mph69%29.98 "HgN/A
12:30 PM72 °FScattered clouds.6 mph69%29.98 "HgN/A
12:00 PM72 °FPassing clouds.7 mph69%29.98 "HgN/A
11:30 AM72 °FPassing clouds.5 mph65%29.98 "HgN/A
11:00 AM68 °FScattered clouds.7 mph60%29.95 "HgN/A
10:30 AM66 °FScattered clouds.9 mph60%29.95 "HgN/A
10:00 AM63 °FScattered clouds.13 mph64%29.95 "HgN/A
9:30 AM61 °FScattered clouds.12 mph68%29.95 "HgN/A
9:00 AM61 °FScattered clouds.13 mph68%29.95 "HgN/A
8:30 AM61 °FPassing clouds.14 mph68%29.92 "HgN/A
8:00 AM61 °FPassing clouds.12 mph68%29.92 "HgN/A
7:30 AM61 °FPassing clouds.12 mph68%29.92 "HgN/A
7:00 AM61 °FPassing clouds.12 mph68%29.89 "HgN/A
6:30 AM61 °FPassing clouds.12 mph68%29.89 "HgN/A
6:00 AM59 °FPassing clouds.12 mph72%29.89 "HgN/A
5:30 AM61 °FPassing clouds.9 mph68%29.89 "HgN/A
5:00 AM61 °FPassing clouds.9 mph68%29.89 "HgN/A
4:30 AM61 °FPassing clouds.9 mph68%29.89 "HgN/A
4:00 AM63 °FPassing clouds.9 mph68%29.89 "HgN/A
3:30 AM63 °FPassing clouds.9 mph68%29.89 "HgN/A
3:00 AM61 °FPassing clouds.9 mph72%29.89 "HgN/A
2:30 AM61 °FPassing clouds.7 mph72%29.86 "HgN/A
2:00 AM63 °FClear.8 mph68%29.86 "Hg10 mi
Weather by CustomWeather, © 2015

See weather overviewHow to use our weather pages